[TLELIST] Archives

 

[list_settings.list_name] Current TLEs

July 28th 2008 PST

HST 1 20580U 90037B 08209.98654350 .00000294 00000-0 98892-5 0 1878 2 20580 028.4684 057.1161 0003662 099.4994 260.6010 15.00395332801118 ISS (ZARYA) 1 25544U 98067A 08209.40986487 .00005858 00000-0 47021-4 0 9393 2 25544 051.6417 169.5893 0009801 001.3775 138.9589 15.72686594554862 CXO 1 25867U 99040B 08209.87500000 +.00000050 +00000-0 +10000-3 0 02261 2 25867 063.9686 079.3274 6906392 278.5394 357.2064 00.37799528003788 ____________________________________________________________________ These 2-Line ...Continue Reading

[list_settings.list_name] Current TLEs

July 27th 2008 PST

HST 1 20580U 90037B 08208.92225043 .00000278 00000-0 86811-5 0 1863 2 20580 028.4682 064.0573 0003571 088.1898 271.9102 15.00394925800952 ISS (ZARYA) 1 25544U 98067A 08208.44809263 .00005134 00000-0 41773-4 0 9331 2 25544 051.6359 174.5089 0011737 355.3071 096.1316 15.72672237554718 CXO 1 25867U 99040B 08207.25000000 +.00000186 +00000-0 +10000-3 0 02255 2 25867 063.9425 079.4530 6907425 278.5139 000.0080 00.37807441003774 ____________________________________________________________________ These 2-Line ...Continue Reading

[list_settings.list_name] Current TLEs

July 26th 2008 PST

HST 1 20580U 90037B 08207.85795655 .00000281 00000-0 88524-5 0 1851 2 20580 028.4683 070.9984 0003539 077.5686 282.5296 15.00394743800798 ISS (ZARYA) 1 25544U 98067A 08207.49629826 .00003248 00000-0 28152-4 0 9262 2 25544 051.6419 179.3980 0009843 353.6777 105.4596 15.72658618554561 CXO 1 25867U 99040B 08207.25000000 +.00000186 +00000-0 +10000-3 0 02255 2 25867 063.9425 079.4530 6907425 278.5139 000.0080 00.37807441003774 ____________________________________________________________________ These 2-Line ...Continue Reading

[list_settings.list_name] Current TLEs

July 25th 2008 PST

HST 1 20580U 90037B 08205.92892412 +.00000254 +00000-0 +67618-5 0 01914 2 20580 028.4676 083.5819 0003472 056.2097 303.8826 15.00394029800505 ISS (ZARYA) 1 25544U 98067A 08206.64825231 -.00006764 00000-0 -44576-4 0 9217 2 25544 051.6441 183.7417 0009508 348.9882 345.6594 15.72647713554427 CXO 1 25867U 99040B 08207.25000000 +.00000186 +00000-0 +10000-3 0 02255 2 25867 063.9425 079.4530 6907425 278.5139 000.0080 00.37807441003774 ____________________________________________________________________ These 2-Line ...Continue Reading

[list_settings.list_name] Current TLEs

July 24th 2008 PST

HST 1 20580U 90037B 08206.06196060 .00000284 00000-0 91047-5 0 1844 2 20580 028.4676 082.7135 0003518 058.1640 301.9293 15.00394310800525 ISS (ZARYA) 1 25544U 98067A 08205.52659841 .00005109 00000-0 37524-4 0 9142 2 25544 051.6416 189.4908 0010117 046.5341 052.1017 15.75173544554256 CXO 1 25867U 99040B 08204.62500000 +.00000242 +00000-0 +10000-3 0 02240 2 25867 063.9287 079.5288 6902291 278.5390 002.6014 00.37807442003761 ____________________________________________________________________ These 2-Line ...Continue Reading

[list_settings.list_name] Current TLEs

July 23rd 2008 PST

HST 1 20580U 90037B 08204.86462917 .00000239 00000-0 56399-5 0 1837 2 20580 028.4676 090.5228 0003436 044.3356 315.7510 15.00393738800343 ISS (ZARYA) 1 25544U 98067A 08204.68138889 .00004675 00000-0 34717-4 0 9072 2 25544 051.6412 193.8383 0010053 043.3628 299.1828 15.75162050554118 CXO 1 25867U 99040B 08204.62500000 +.00000242 +00000-0 +10000-3 0 02240 2 25867 063.9287 079.5288 6902291 278.5390 002.6014 00.37807442003761 ____________________________________________________________________ These 2-Line ...Continue Reading

[list_settings.list_name] Current TLEs

July 22nd 2008 PST

HST 1 20580U 90037B 08202.93559358 +.00000244 +00000-0 +60122-5 0 01979 2 20580 028.4675 103.1028 0003425 022.9977 337.0767 15.00393405800050 ISS (ZARYA) 1 25544U 98067A 08204.20846065 .00004546 00000-0 33889-4 0 9034 2 25544 051.6401 196.2703 0009931 041.8717 137.0875 15.75156208554046 CXO 1 25867U 99040B 08199.41666667 +.00000109 +00000-0 +10000-3 0 02233 2 25867 063.9013 079.6613 6893698 278.5454 013.6560 00.37805551003747 ____________________________________________________________________ These 2-Line ...Continue Reading

[list_settings.list_name] Current TLEs

July 21st 2008 PST

HST 1 20580U 90037B 08203.13514890 .00000254 00000-0 67895-5 0 1823 2 20580 028.4676 101.8010 0003436 025.5061 334.5697 15.00393527800084 ISS (ZARYA) 1 25544U 98067A 08202.85797737 .00004999 00000-0 36856-4 0 8964 2 25544 051.6396 203.2173 0009907 036.7872 039.0408 15.75143721553832 CXO 1 25867U 99040B 08199.41666667 +.00000109 +00000-0 +10000-3 0 02233 2 25867 063.9013 079.6613 6893698 278.5454 013.6560 00.37805551003747 ____________________________________________________________________ These 2-Line ...Continue Reading

[list_settings.list_name] Current TLEs

July 20th 2008 PST

HST 1 20580U 90037B 08200.94003860 +.00000267 +00000-0 +77873-5 0 01853 2 20580 028.4674 116.1170 0003459 000.9261 359.1333 15.00393189799757 ISS (ZARYA) 1 25544U 98067A 08200.81385417 .00005952 00000-0 43098-4 0 8827 2 25544 051.6402 213.7315 0009762 029.6665 327.1922 15.75123561553500 CXO 1 25867U 99040B 08199.41666667 +.00000109 +00000-0 +10000-3 0 02233 2 25867 063.9013 079.6613 6893698 278.5454 013.6560 00.37805551003747 ____________________________________________________________________ These 2-Line ...Continue Reading

[list_settings.list_name] Current TLEs

July 19th 2008 PST

HST 1 20580U 90037B 08200.80700137 .00000279 00000-0 86978-5 0 1803 2 20580 028.4675 116.9847 0003446 359.1644 000.8939 15.00393269799736 ISS (ZARYA) 1 25544U 98067A 08200.81385417 .00005952 00000-0 43098-4 0 8827 2 25544 051.6402 213.7315 0009762 029.6665 327.1922 15.75123561553500 CXO 1 25867U 99040B 08199.41666667 +.00000109 +00000-0 +10000-3 0 02233 2 25867 063.9013 079.6613 6893698 278.5454 013.6560 00.37805551003747 ____________________________________________________________________ These 2-Line ...Continue Reading
  • This mailing list is a public mailing list - anyone may join or leave, at any time.
  • This mailing list is announce-only.

International Space Station (ISS) / Hubble Space Telescope (HST) / Chandra X-Ray Observatory Orbital Data via EMAIL

Privacy Policy:

Private list